[TLELIST] Archives

 

[TLELIST] Current TLEs

April 13th 2024 PDT

HST 1 20580U 90037B 24104.19871790 .00005874 00000-0 28231-3 0 9990 2 20580 28.4692 60.2311 0002662 47.3292 312.7524 15.16684019667413 ISS (ZARYA) 1 25544U 98067A 24104.50678933 .00014597 00000-0 26181-3 0 9999 2 25544 51.6398 276.1075 0004650 66.0875 326.1313 15.50152777448510 CXO 1 25867U 99040B 24104.39900763 .00000859 00000-0 00000-0 0 9990 2 25867 39.7933 160.1482 8951194 291.8037 0.1094 0.37811186 14322 ...Continue Reading

[TLELIST] Current TLEs

April 12th 2024 PDT

HST 1 20580U 90037B 24102.61945783 .00005171 00000-0 24750-3 0 9991 2 20580 28.4690 70.7935 0002529 30.7005 329.3735 15.16665693666918 ISS (ZARYA) 1 25544U 98067A 24103.41988057 .00013578 00000-0 24444-3 0 9997 2 25544 51.6402 281.4944 0004721 62.3602 20.3545 15.50116232448343 CXO 1 25867U 99040B 24104.39900763 .00000859 00000-0 00000-0 0 9990 2 25867 39.7933 160.1482 8951194 291.8037 0.1094 0.37811186 14322 ...Continue Reading

[TLELIST] Current TLEs

April 11th 2024 PDT

HST 1 20580U 90037B 24101.63241124 .00004915 00000-0 23485-3 0 9999 2 20580 28.4688 77.3951 0002457 20.5440 339.5250 15.16655132666761 ISS (ZARYA) 1 25544U 98067A 24102.18017604 .00013592 00000-0 24499-3 0 9997 2 25544 51.6374 287.6432 0004701 55.3920 304.7512 15.50080873448157 CXO 1 25867U 99040B 24104.39900763 .00000859 00000-0 00000-0 0 9990 2 25867 39.7933 160.1482 8951194 291.8037 0.1094 0.37811186 14322 ...Continue Reading

[TLELIST] Current TLEs

April 11th 2024 PDT

HST 1 20580U 90037B 24101.63241124 .00004915 00000-0 23485-3 0 9999 2 20580 28.4688 77.3951 0002457 20.5440 339.5250 15.16655132666761 ISS (ZARYA) 1 25544U 98067A 24102.18017604 .00013592 00000-0 24499-3 0 9997 2 25544 51.6374 287.6432 0004701 55.3920 304.7512 15.50080873448157 CXO 1 25867U 99040B 24104.39900763 .00000859 00000-0 00000-0 0 9990 2 25867 39.7933 160.1482 8951194 291.8037 0.1094 0.37811186 14322 ...Continue Reading

[TLELIST] Current TLEs

April 10th 2024 PDT

HST 1 20580U 90037B 24100.64535772 .00005417 00000-0 25990-3 0 9995 2 20580 28.4685 83.9975 0002400 9.1066 350.9569 15.16646611666618 ISS (ZARYA) 1 25544U 98067A 24101.03904484 .00012558 00000-0 22725-3 0 9992 2 25544 51.6391 293.2963 0004827 53.6203 54.5347 15.50046419447975 CXO 1 25867U 99040B 24101.75442889 .00000852 00000-0 00000-0 0 9990 2 25867 39.7258 160.4924 8952487 291.5303 0.1634 0.37813076 14314 ...Continue Reading

[TLELIST] Current TLEs

April 10th 2024 PDT

HST 1 20580U 90037B 24100.64535772 .00005417 00000-0 25990-3 0 9995 2 20580 28.4685 83.9975 0002400 9.1066 350.9569 15.16646611666618 ISS (ZARYA) 1 25544U 98067A 24101.03904484 .00012558 00000-0 22725-3 0 9992 2 25544 51.6391 293.2963 0004827 53.6203 54.5347 15.50046419447975 CXO 1 25867U 99040B 24101.75442889 .00000852 00000-0 00000-0 0 9990 2 25867 39.7258 160.4924 8952487 291.5303 0.1634 0.37813076 14314 ...Continue Reading

[TLELIST] Current TLEs

April 10th 2024 PDT

HST 1 20580U 90037B 24100.64535772 .00005417 00000-0 25990-3 0 9995 2 20580 28.4685 83.9975 0002400 9.1066 350.9569 15.16646611666618 ISS (ZARYA) 1 25544U 98067A 24101.03904484 .00012558 00000-0 22725-3 0 9992 2 25544 51.6391 293.2963 0004827 53.6203 54.5347 15.50046419447975 CXO 1 25867U 99040B 24101.75442889 .00000852 00000-0 00000-0 0 9990 2 25867 39.7258 160.4924 8952487 291.5303 0.1634 0.37813076 14314 ...Continue Reading

[TLELIST] Current TLEs

April 9th 2024 PDT

HST 1 20580U 90037B 24100.25053482 .00004781 00000-0 22828-3 0 9995 2 20580 28.4684 86.6384 0002385 4.6779 355.3835 15.16641384666813 ISS (ZARYA) 1 25544U 98067A 24100.07853737 .00013558 00000-0 24486-3 0 9996 2 25544 51.6387 298.0555 0004839 50.5238 94.3443 15.50024904447825 CXO 1 25867U 99040B 24101.75442889 .00000852 00000-0 00000-0 0 9990 2 25867 39.7258 160.4924 8952487 291.5303 0.1634 0.37813076 14314 ...Continue Reading

[TLELIST] Current TLEs

April 8th 2024 PDT

HST 1 20580U 90037B 24098.67123243 .00004493 00000-0 21407-3 0 9992 2 20580 28.4681 97.2027 0002331 347.0325 13.0207 15.16626558666316 ISS (ZARYA) 1 25544U 98067A 24099.42084265 .00012682 00000-0 22975-3 0 9992 2 25544 51.6405 301.3116 0004747 49.1798 23.2907 15.50005864447729 CXO 1 25867U 99040B 24101.75328704 .00000852 00000-0 00000-0 0 9999 2 25867 39.7258 160.4923 8952489 291.5305 0.0080 0.37813252 14306 ...Continue Reading

[TLELIST] Current TLEs

April 7th 2024 PDT

HST 1 20580U 90037B 24097.68416068 .00004469 00000-0 21290-3 0 9995 2 20580 28.4681 103.8051 0002272 335.6781 24.3703 15.16617958666163 ISS (ZARYA) 1 25544U 98067A 24098.38678613 .00011997 00000-0 21801-3 0 9997 2 25544 51.6406 306.4359 0004819 45.3419 13.3007 15.49976152447561 CXO 1 25867U 99040B 24099.11342090 .00000981 00000-0 00000-0 0 9992 2 25867 39.6477 160.8755 8951214 291.2355 0.6641 0.37810152 14307 ...Continue Reading
  • This mailing list is a public mailing list - anyone may join or leave, at any time.
  • This mailing list is announce-only.

International Space Station (ISS) / Hubble Space Telescope (HST) / Chandra X-Ray Observatory Orbital Data via EMAIL

Privacy Policy:

Private list